Location: Tel Aviv
(32.0670°N, 34.7670°E)
Time: 18:49:58
(UTC+03:00)

deb Explorer IX - All Passes

Search period start: 20 September 2024 00:00
Search period end: 30 September 2024 00:00
Orbit: 504 x 846 km, 38.7° (Epoch: 19 September)

Date Brightness Start Highest point End Pass type
(mag) Time Alt. Az. Time Alt. Az. Time Alt. Az.
20 Sep - 00:03:33 10° WNW 00:09:14 56° SSW 00:14:31 10° SE night (unlit)
20 Sep - 01:50:00 10° WSW 01:52:14 12° SW 01:54:25 10° SSW night (unlit)
20 Sep - 15:59:59 10° S 16:04:04 23° SE 16:08:25 10° E daylight
20 Sep - 17:41:55 10° WSW 17:47:24 85° SSE 17:53:17 10° ENE daylight
20 Sep - 19:26:05 10° W 19:31:38 47° N 19:37:20 10° ENE visible
20 Sep - 21:10:34 10° WNW 21:16:14 47° N 21:21:51 10° E visible
20 Sep - 22:54:35 10° WNW 23:00:31 90° SSW 23:06:08 10° ESE visible
21 Sep - 00:39:17 10° W 00:43:56 26° SW 00:48:20 10° SSE night (unlit)
21 Sep - 14:54:38 10° SSE 14:55:45 11° SE 14:56:54 10° ESE daylight
21 Sep - 16:33:34 10° SW 16:38:40 52° SSE 16:44:12 10° ENE daylight
21 Sep - 18:17:03 10° W 18:22:32 59° NNW 18:28:20 10° ENE daylight
21 Sep - 20:01:32 10° WNW 20:07:03 43° N 20:12:39 10° ENE visible
21 Sep - 21:45:40 10° WNW 21:51:32 64° NNE 21:57:15 10° E visible
21 Sep - 23:29:46 10° WNW 23:35:21 46° SSW 23:40:39 10° SE night (unlit)
22 Sep - 15:25:47 10° SSW 15:30:03 28° SE 15:34:42 10° E daylight
22 Sep - 17:08:09 10° WSW 17:13:29 82° NNW 17:19:16 10° ENE daylight
22 Sep - 18:52:22 10° WNW 18:57:46 45° N 19:03:24 10° ENE visible
22 Sep - 20:36:40 10° WNW 20:42:20 50° N 20:48:02 10° E visible
22 Sep - 22:20:35 10° WNW 22:26:29 77° SSW 22:32:12 10° ESE visible
23 Sep - 00:05:36 10° W 00:09:49 21° SW 00:13:52 10° S night (unlit)
23 Sep - 14:19:10 10° SSE 14:21:34 14° SE 14:24:05 10° ESE daylight
23 Sep - 15:59:31 10° SW 16:04:32 63° SSE 16:10:03 10° ENE daylight
23 Sep - 17:43:11 10° W 17:48:29 52° NNW 17:54:08 10° ENE daylight
23 Sep - 19:27:34 10° WNW 19:32:59 43° N 19:38:35 10° ENE visible
23 Sep - 21:11:30 10° WNW 21:17:22 73° NNE 21:23:13 10° ESE visible
23 Sep - 22:55:41 10° WNW 23:01:05 38° SW 23:06:18 10° SSE visible
24 Sep - 14:51:22 10° SSW 14:55:43 34° SE 15:00:31 10° E daylight
24 Sep - 16:34:06 10° WSW 16:39:14 71° NNW 16:44:52 10° ENE daylight
24 Sep - 18:18:20 10° WNW 18:23:34 42° N 18:29:05 10° ENE daylight
24 Sep - 20:02:25 10° WNW 20:08:03 54° NNE 20:13:50 10° E visible
24 Sep - 21:46:16 10° WNW 21:52:05 65° SSW 21:57:50 10° SE visible
24 Sep - 23:31:45 10° W 23:35:19 17° SW 23:38:48 10° S night (unlit)
25 Sep - 13:44:04 10° S 13:47:03 17° SE 13:50:13 10° E daylight
25 Sep - 15:25:13 10° WSW 15:30:05 76° SSE 15:35:31 10° ENE daylight
25 Sep - 17:09:02 10° W 17:14:05 47° N 17:19:35 10° ENE daylight
25 Sep - 18:53:15 10° WNW 18:58:35 44° N 19:04:10 10° E visible
25 Sep - 20:37:02 10° WNW 20:42:50 83° NNE 20:48:45 10° ESE visible
25 Sep - 22:21:20 10° W 22:26:25 31° SW 22:31:27 10° SSE visible
26 Sep - 14:16:44 10° SW 14:21:05 41° SE 14:25:55 10° ENE daylight
26 Sep - 15:59:45 10° W 16:04:40 61° NNW 16:10:06 10° ENE daylight
26 Sep - 17:43:57 10° WNW 17:49:00 41° N 17:54:24 10° ENE daylight
26 Sep - 19:27:50 10° WNW 19:33:23 59° NNE 19:39:12 10° E visible
26 Sep - 21:11:38 10° WNW 21:17:18 54° SSW 21:22:59 10° SE visible
26 Sep - 22:57:53 10° WSW 23:00:27 13° SW 23:02:59 10° SSW night (unlit)
27 Sep - 13:08:54 10° S 13:12:13 20° SE 13:15:46 10° E daylight
27 Sep - 14:50:38 10° WSW 14:55:19 90° SSE 15:00:36 10° ENE daylight
27 Sep - 16:34:33 10° W 16:39:23 43° N 16:44:40 10° ENE daylight
27 Sep - 18:18:36 10° WNW 18:23:48 46° N 18:29:21 10° E daylight
27 Sep - 20:02:14 10° WNW 20:07:56 86° SSW 20:13:50 10° ESE visible
27 Sep - 21:46:43 10° W 21:51:24 25° SW 21:56:06 10° SSE visible
28 Sep - 13:41:49 10° SW 13:46:08 51° SSE 13:50:56 10° ENE daylight
28 Sep - 15:25:06 10° W 15:29:47 53° NNW 15:34:59 10° ENE daylight
28 Sep - 17:09:14 10° WNW 17:14:05 40° N 17:19:22 10° ENE daylight
28 Sep - 18:52:55 10° WNW 18:58:22 65° NNE 19:04:10 10° ESE visible
28 Sep - 20:36:44 10° WNW 20:42:08 44° SSW 20:47:41 10° SE visible
29 Sep - 12:33:33 10° SSW 12:37:03 25° SE 12:40:51 10° E daylight
29 Sep - 14:15:45 10° WSW 14:20:15 77° NNW 14:25:19 10° ENE daylight
29 Sep - 15:59:43 10° WNW 16:04:19 40° N 16:09:24 10° ENE daylight
29 Sep - 17:43:35 10° WNW 17:48:40 48° NNE 17:54:10 10° E daylight
29 Sep - 19:27:08 10° WNW 19:32:39 74° SSW 19:38:29 10° ESE visible
29 Sep - 21:11:56 10° W 21:16:01 20° SW 21:20:11 10° S visible
